Location: Newark
(48.3453°N, 0.5589°E)
Time: 13:52:42
(UTC+00:00)

Vanguard 1 Rocket - Visible Passes

Search period start: 07 December 2019 00:00
Search period end: 17 December 2019 00:00
Orbit: 650 x 4226 km, 34.3° (Epoch: 06 December)

Date Brightness Start Highest point End Pass type
(mag) Time Alt. Az. Time Alt. Az. Time Alt. Az.
07 Dec 10.6 20:05:50 10° SSW 20:14:57 21° S 20:14:57 21° S visible
08 Dec 10.7 18:54:45 10° S 19:05:17 17° SSE 19:07:54 16° SE visible
08 Dec 10.7 21:19:08 10° SW 21:25:12 21° SSW 21:25:12 21° SSW visible
09 Dec 11.0 17:47:00 10° SSE 17:52:49 12° SE 17:57:53 10° SE visible
09 Dec 10.4 20:05:59 10° SSW 20:18:08 27° S 20:18:08 27° S visible
09 Dec 11.2 22:34:20 10° WSW 22:35:25 12° WSW 22:35:25 12° WSW visible
10 Dec 10.5 18:53:46 10° SSW 19:07:47 23° SSE 19:11:03 21° SE visible
10 Dec 10.6 21:20:21 10° SW 21:28:21 25° SSW 21:28:21 25° SSW visible
11 Dec 10.8 17:43:19 10° S 17:55:11 17° SE 18:03:58 11° ESE visible
11 Dec 10.3 20:06:36 10° SW 20:21:15 32° S 20:21:15 32° S visible
11 Dec 11.1 22:36:10 10° WSW 22:38:33 15° WSW 22:38:33 15° WSW visible
12 Dec 11.2 16:37:54 10° SSE 16:42:30 11° SE 16:46:45 10° SE visible
12 Dec 10.3 18:53:34 10° SSW 19:10:14 29° SSE 19:14:09 26° SE visible
12 Dec 10.5 21:21:47 10° WSW 21:31:26 29° SW 21:31:26 29° SW visible
13 Dec 10.7 17:41:53 10° S 17:57:29 23° SSE 18:07:02 14° ESE visible
13 Dec 10.1 20:07:33 10° SW 20:24:19 38° S 20:24:19 38° S visible
13 Dec 11.0 22:38:06 10° WSW 22:41:36 17° WSW 22:41:36 17° WSW visible
14 Dec 11.1 16:32:37 10° S 16:44:39 16° SE 16:54:33 10° ESE visible
14 Dec 10.2 18:53:55 10° SSW 19:12:38 34° SSE 19:17:11 30° SE visible
14 Dec 10.4 21:23:23 10° WSW 21:34:28 33° SW 21:34:28 33° SW visible
15 Dec 10.6 17:41:25 10° SSW 17:59:43 28° SSE 18:10:01 16° ESE visible
15 Dec 10.0 20:08:45 10° SW 20:27:18 42° S 20:27:18 42° S visible
15 Dec 11.0 22:40:07 10° WSW 22:44:36 19° WSW 22:44:36 19° WSW visible
16 Dec 11.0 16:30:40 10° S 16:46:41 22° SE 16:59:20 10° ESE visible
16 Dec 10.1 18:54:40 10° SW 19:15:00 39° SSE 19:20:09 33° SE visible
16 Dec 10.3 21:25:07 10° WSW 21:37:26 36° SW 21:37:26 36° SW visible
